Weather History for McComb, MS

Change the Weather History Date:

Friday, April 19, 2013

  Actual Average Record
Temperature  
Mean Temperature 52 °F -  
Max Temperature 60 °F 78 °F 92 °F (1987)
Min Temperature 44 °F 55 °F 36 °F (1983)
Degree Days  
Heating Degree Days 13    
Growing Degree Days 2 (Base 50)    
Moisture  
Dew Point 44 °F    
Average Humidity 79    
Maximum Humidity 100    
Minimum Humidity 42    
Precipitation  
Precipitation 0.18 in - - ()
Sea Level Pressure  
Sea Level Pressure 30.02 in    
Wind  
Wind Speed 13 mph (NW)    
Max Wind Speed 20 mph    
Max Gust Speed 30 mph    
Visibility 9 miles    
Events Rain , Thunderstorm    
Averages and records for this station are not official NWS values.
T = Trace of Precipitation, MM = Missing Value Source: NWS Daily Summary

Daily Weather History Graph

Daily Weather History Graph

Search for Another Location

Airport:

Trip Planner

Search our weather history database for the weather conditions in past years. The results will help you decide how hot, cold, wet, or windy it might be!

Date:

Astronomy

Apr. 19, 2013 Rise Set
Actual Time 6:29 AM CDT 7:33 PM CDT
Civil Twilight 6:04 AM CDT 7:58 PM CDT
Nautical Twilight 5:34 AM CDT 8:28 PM CDT
Astronomical Twilight 5:03 AM CDT 8:58 PM CDT
Moon 1:41 PM CDT (4/19) 2:20 AM CDT (4/19)
Length of Visible Light 13h 54m
Length of Day
13h 04m
First Quarter, 62% of the Moon is Illuminated
Apr 19
First Quarter
Apr 25
Full
May 2
Last Quarter
May 9
New
May 17
First Quarter

Hourly Weather History & Observations

Time (CDT) Temp. Windchill Dew Point Humidity Pressure Visibility Wind Dir Wind Speed Gust Speed Precip Events Conditions
12:09 AM 57.2 °F - 55.4 °F 94% 29.91 in 7.0 mi NW 13.8 mph - 0.02 in Rain Light Rain
12:13 AM 55.4 °F - 55.4 °F 100% 29.90 in 6.0 mi NW 10.4 mph - 0.03 in Rain Light Rain
12:39 AM 55.4 °F - 55.4 °F 100% 29.88 in 10.0 mi NNW 10.4 mph - 0.04 in Rain , Thunderstorm Light Rain
12:53 AM 55.9 °F - 54.0 °F 93% 29.88 in 4.0 mi NNW 15.0 mph - 0.10 in Rain , Thunderstorm Rain
1:04 AM 55.4 °F - 53.6 °F 94% 29.91 in 8.0 mi WNW 13.8 mph 20.7 mph 0.02 in Rain Light Rain
1:16 AM 53.6 °F - 53.6 °F 100% 29.90 in 8.0 mi NNW 16.1 mph 27.6 mph 0.03 in Rain , Thunderstorm Light Rain
1:28 AM 53.6 °F - 53.6 °F 100% 29.92 in 6.0 mi NW 11.5 mph - 0.06 in Rain Rain
1:35 AM 53.6 °F - 51.8 °F 94% 29.91 in 9.0 mi NW 11.5 mph - 0.06 in Rain Light Rain
1:53 AM 53.1 °F - 52.0 °F 96% 29.91 in 10.0 mi NW 15.0 mph 24.2 mph 0.06 in Rain Light Rain
2:10 AM 53.6 °F - 51.8 °F 94% 29.92 in 10.0 mi NW 16.1 mph 25.3 mph 0.01 in Rain , Thunderstorm Light Thunderstorms and Rain
2:28 AM 51.8 °F - 50.0 °F 94% 29.93 in 10.0 mi NNW 15.0 mph - 0.01 in Rain Light Rain
2:53 AM 52.0 °F - 51.1 °F 97% 29.93 in 5.0 mi NW 12.7 mph 23.0 mph 0.01 in Rain Light Rain
3:23 AM 50.0 °F - 48.2 °F 94% 29.94 in 10.0 mi NNW 13.8 mph 24.2 mph 0.00 in   Overcast
3:35 AM 50.0 °F - 48.2 °F 94% 29.93 in 10.0 mi NW 13.8 mph - 0.00 in   Overcast
3:53 AM 50.0 °F - 46.9 °F 89% 29.94 in 10.0 mi NNW 16.1 mph 25.3 mph 0.00 in   Overcast
3:59 AM 48.2 °F - 46.4 °F 93% 29.95 in 10.0 mi NNW 19.6 mph 26.5 mph N/A   Overcast
4:19 AM 48.2 °F - 46.4 °F 93% 29.96 in 10.0 mi NNW 15.0 mph 23.0 mph N/A   Overcast
4:33 AM 48.2 °F - 44.6 °F 87% 29.98 in 10.0 mi NNW 15.0 mph 23.0 mph N/A   Overcast
4:51 AM 48.2 °F - 44.6 °F 87% 30.00 in 10.0 mi NW 15.0 mph 20.7 mph N/A   Overcast
4:53 AM 48.0 °F - 45.0 °F 89% 30.00 in 10.0 mi NW 15.0 mph 21.9 mph N/A   Overcast
5:53 AM 48.0 °F - 45.0 °F 89% 29.99 in 10.0 mi NNW 17.3 mph 23.0 mph N/A   Overcast
6:34 AM 46.4 °F 40.1 °F 42.8 °F 87% 30.02 in 10.0 mi NNW 15.0 mph - N/A   Overcast
6:53 AM 46.9 °F - 39.0 °F 74% 30.04 in 10.0 mi NNW 17.3 mph 29.9 mph 0.01 in   Mostly Cloudy
7:08 AM 46.4 °F 40.4 °F 37.4 °F 71% 30.05 in 10.0 mi NNW 13.8 mph - N/A   Partly Cloudy
7:53 AM 46.0 °F 41.0 °F 37.9 °F 73% 30.09 in 10.0 mi NNW 10.4 mph - N/A   Clear
8:53 AM 48.0 °F - 41.0 °F 77% 30.09 in 10.0 mi NNW 8.1 mph 20.7 mph N/A   Mostly Cloudy
9:53 AM 46.9 °F - 39.0 °F 74% 30.10 in 10.0 mi NNW 12.7 mph - N/A   Mostly Cloudy
10:02 AM 48.2 °F - 37.4 °F 66% 30.12 in 10.0 mi NW 10.4 mph - N/A   Partly Cloudy
10:53 AM 48.0 °F - 37.9 °F 68% 30.15 in 10.0 mi WNW 11.5 mph - N/A   Partly Cloudy
11:53 AM 48.9 °F - 37.9 °F 66% 30.14 in 10.0 mi NW 8.1 mph 18.4 mph N/A   Partly Cloudy
12:53 PM 53.1 °F - 37.9 °F 57% 30.11 in 10.0 mi NNW 13.8 mph - N/A   Clear
1:53 PM 55.9 °F - 37.0 °F 49% 30.08 in 10.0 mi NW 13.8 mph 19.6 mph N/A   Clear
2:53 PM 57.9 °F - 36.0 °F 44% 30.07 in 10.0 mi NW 13.8 mph - N/A   Clear
3:53 PM 60.1 °F - 37.0 °F 42% 30.08 in 10.0 mi NW 13.8 mph 19.6 mph N/A   Clear
4:53 PM 59.0 °F - 37.0 °F 44% 30.06 in 10.0 mi NW 11.5 mph 19.6 mph N/A   Clear
5:53 PM 57.9 °F - 35.1 °F 42% 30.07 in 10.0 mi NW 13.8 mph 19.6 mph N/A   Clear
6:53 PM 57.0 °F - 35.1 °F 44% 30.11 in 10.0 mi NNW 10.4 mph - N/A   Clear
7:53 PM 51.1 °F - 37.9 °F 61% 30.12 in 10.0 mi NNW 8.1 mph - N/A   Clear
8:53 PM 48.9 °F - 37.9 °F 66% 30.15 in 10.0 mi NNW 5.8 mph - N/A   Clear
9:53 PM 48.9 °F - 39.0 °F 69% 30.17 in 10.0 mi North 3.5 mph - N/A   Clear
10:53 PM 44.1 °F - 39.9 °F 85% 30.18 in 10.0 mi Calm Calm - N/A   Clear
11:53 PM 44.1 °F - 39.0 °F 82% 30.19 in 10.0 mi Calm Calm - N/A   Clear